ECHOSTAR 17             
1 38551U 12035A   19265.48664005 -.00000083  00000-0  00000+0 0  9990
2 38551   0.0177 181.8404 0002038 357.3168 250.0033  1.00271050 26468
METEOSAT-10 (MSG-3)     
1 38552U 12035B   19266.29762226  .00000053  00000-0  00000+0 0  9991
2 38552   1.1060 344.8648 0001926 233.4600 260.3979  1.00263802 26563
ARIANE 5 R/B            
1 38553U 12035C   19265.61773264  .00000335  00000-0  12366-3 0  9996
2 38553   6.7189  20.3576 7182045 253.8896  22.4111  2.39232376 61889
ARIANE 5 DEB [SYLDA]    
1 38554U 12035D   19264.63267340  .00001738  00000-0  49708-3 0  9999
2 38554   5.7046 203.3296 6752087 254.9454  26.3829  2.96274722 70022
MSG-3 DEB [COOLER COVER]
1 40871U 12035E   19265.31116851 -.00000091  00000-0  00000+0 0  9990
2 40871   4.0134  83.3067 0031545 216.1747  40.3509  1.01518507 26217
MSG-3 DEB [BAFFLE COVER]
1 40872U 12035F   19262.45813107 -.00000144  00000-0  00000+0 0  9990
2 40872   3.9383  83.1116 0094628 159.7856 200.9331  1.02740809 22451